Regional Weather Roundup
Issued by NWS Burlington, VT

Home | Current Version | Previous Version | Text Only | Print | Product List | Glossary On
Versions: 1 2 3 4 5 6 7 8 9 10 11 12 13 14 15 16 17 18 19 20 21 22 23 24 25 26 27 28 29 30 31 32 33 34 35 36 37 38 39 40 41 42 43 44 45 46 47 48 49 50
000
ASUS41 KBTV 040030
RWRBTV
VERMONT REGIONAL WEATHER ROUNDUP
NATIONAL WEATHER SERVICE BURLINGTON VT
700 PM EST SAT DEC 03 2016

NOTE: "FAIR" INDICATES FEW OR NO CLOUDS BELOW 12,000 FEET WITH NO
SIGNIFICANT WEATHER AND/OR OBSTRUCTIONS TO VISIBILITY.

* THESE REPORTS ARE NOT UNDER NWS QUALITY CONTROL AND/OR DO NOT
  REPORT WEATHER SUCH AS PRECIPITATION AND FOG.

VTZ001>019-040100-
_____VERMONT_____


CITY           SKY/WX    TMP DP  RH WIND       PRES   REMARKS
BURLINGTON     CLOUDY    35  24  64 NW13      30.09R WCI  26
6HR MIN TEMP:  34; 6HR MAX TEMP:  37; 6HR PCP: TRACE;

MONTPELIER     FLURRIES  29  25  85 NW9       30.06R WCI  20
6HR MIN TEMP:  29; 6HR MAX TEMP:  32; 6HR PCP: TRACE;

MORRISVILLE    LGT SNOW  31  23  72 NW10      30.06R WCI  22
6HR MIN TEMP:  31; 6HR MAX TEMP:  34; 6HR PCP:  0.01;

ST. JOHNSBURY*   N/A     32  29  88 MISG      30.00R
6HR MIN TEMP:  32; 6HR MAX TEMP:  37; 6HR PCP:  0.07;

LYNDONVILLE*   FLURRIES  30  25  83 W8        30.01R WCI  22
6HR MIN TEMP:  29; 6HR MAX TEMP:  32;

MIDDLEBURY*    FLURRIES  33  27  77 N8        30.09R WCI  26
6HR MIN TEMP:  33; 6HR MAX TEMP:  36;

RUTLAND*       LGT SNOW  30  28  93 NW6       30.08R FOG     WCI  24
6HR MIN TEMP:  31; 6HR MAX TEMP:  34; 6HR PCP:  0.03;

SPRINGFIELD    CLOUDY    34  24  67 NW7       30.06R WCI  28
6HR MIN TEMP:  34; 6HR MAX TEMP:  38; 6HR PCP: TRACE;

HIGHGATE*      CLOUDY    32  25  74 NW7       30.09R WCI  26
6HR MIN TEMP:  32; 6HR MAX TEMP:  37;

NEWPORT*       CLOUDY    29  27  89 NW6       30.02R WCI  23
6HR MIN TEMP:  29; 6HR MAX TEMP:  31;

BENNINGTON     CLOUDY    34  24  67 NW8       30.08R WCI  27
6HR MIN TEMP:  34; 6HR MAX TEMP:  39; 6HR PCP: TRACE;

SUTTON*          N/A     28 N/A N/A MISG        N/A
ISLAND POND*     N/A     28 N/A N/A NW8         N/A  WCI  20
GALLUP MILLS*    N/A     28 N/A N/A MISG        N/A
UNION VILLAGE*   N/A     34 N/A N/A MISG        N/A
MT. MANSFIELD*   N/A     18 N/A N/A CALM        N/A

_____LAKE CHAMPLAIN_____


CITY           SKY/WX    TMP DP  RH WIND       PRES   REMARKS
BURTON ISLAND*   N/A     36  28  75 NW15        N/A  WCI  26
COLCHESTER RF*   N/A     36  27  69 NW24        N/A  WCI  24
DIAMOND ISL*     N/A     36  27  69 NW10        N/A  WCI  28

$$

NYZ007-026>031-035-052-083-087-040100-
_____NORTHERN NEW YORK_____


CITY           SKY/WX    TMP DP  RH WIND       PRES   REMARKS
PLATTSBURGH    CLOUDY    34  22  61 NW7       30.10R WCI  28
6HR MIN TEMP:  34; 6HR MAX TEMP:  38; 6HR PCP: TRACE;

SARANAC LAKE   FLURRIES  27  23  85 VRB3      30.05R
6HR MIN TEMP:  27; 6HR MAX TEMP:  29; 6HR PCP:  0.03;

MASSENA        CLOUDY    35  19  52 NW12      30.16R WCI  27
6HR MIN TEMP:  35; 6HR MAX TEMP:  37;

OGDENSBURG*    CLOUDY    34  27  75 NW13      30.17R WCI  25
6HR MIN TEMP:  35; 6HR MAX TEMP:  38;

POTSDAM*       CLOUDY    34  28  80 NW9       30.15R WCI  26
WATERTOWN      CLOUDY    35  23  61 NW7       30.17S WCI  29
6HR MIN TEMP:  35; 6HR MAX TEMP:  38;

FT DRUM        CLOUDY    34  23  64 W3        30.14R
6HR MIN TEMP:  34; 6HR MAX TEMP:  36; 6HR PCP: TRACE;

ALBANY         FLURRIES  36  27  69 NW16G23   30.12S WCI  26
6HR MIN TEMP:  36; 6HR MAX TEMP:  42; 6HR PCP: TRACE;

GLENS FALLS    CLOUDY    37  22  54 SW3       30.12R
6HR MIN TEMP:  35; 6HR MAX TEMP:  41; 6HR PCP: TRACE;


$$
NHZ002-005-011-040100-
_____NEW HAMPSHIRE_____


CITY           SKY/WX    TMP DP  RH WIND       PRES   REMARKS
LEBANON        CLOUDY    35  27  72 NW10      30.04R WCI  27
6HR MIN TEMP:  35; 6HR MAX TEMP:  40; 6HR PCP: TRACE;

KEENE          MOCLDY    36  25  64 NW9       30.05R WCI  29
6HR MIN TEMP:  36; 6HR MAX TEMP:  40;

MT WASHINGTON  SNOWSHWR   9   9 100 NW54G67     N/A  VSB 0   WCI -20
6HR MIN TEMP:   9; 6HR MAX TEMP:  13; 6HR PCP:  0.26;

PLYMOUTH       FLURRIES  34  27  74 W10       30.01R WCI  26
6HR MIN TEMP:  34; 6HR MAX TEMP:  37;

WHITEFIELD     CLOUDY    31  25  78 NW6       29.98R WCI  25
6HR MIN TEMP:  31; 6HR MAX TEMP:  35; 6HR PCP: TRACE;


$$

_____REGIONAL QUEBEC LOCATIONS_____


CITY           SKY/WX    TMP DP  RH WIND       PRES   REMARKS
MONTREAL       CLOUDY    32  21  64 W14       30.11R WCI  22
QUEBEC CITY    MOCLDY    28  21  74 NW5       30.01R WCI  23
SHERBROOKE     CLOUDY    28  27  93 W12G17    30.01R WCI  18

_____REGIONAL ONTARIO LOCATIONS_____


CITY           SKY/WX    TMP DP  RH WIND       PRES   REMARKS
OTTAWA         CLOUDY    32  21  64 NW12G17   30.15R WCI  23

______KEY______
VSB  - VISIBILITY IN MILES
WCI  - WIND CHILL INDEX
HX   - HEAT INDEX
$$
NNNN



USA.gov is the U.S. government's official web portal to all federal, state and local government web resources and services.